sat.trackr.live / text

‹ back to catalog

FOURIER

NORAD 65298 · 2025-185B

PAYLOAD ACTIVE UNKNOWN

§ Identity

Operator
Country
RWA
Launch date
2025-08-23
Launch site
RLLB
Launch vehicle
Mass (kg)
RCS (m²)

External: N2YO · Heavens-Above · Gunter

§ Orbital elements

Epoch: 2026-05-25T05:03:25.274880Z

Period
97.37 min
Inclination
97.9641°
Eccentricity
0.0017021
Mean motion
14.78840816 rev/d
Perigee alt
621.1 km
Apogee alt
644.9 km
Semi-major
7,011.1 km
B*
1.2764e-3
RAAN
228.8053°
Arg perigee
152.7910°
Mean anomaly
207.4197°
Rev number
4,044

§ Raw data

FOURIER1 65298U 25185B   26145.21070920  .00009374  00000+0  12764-2 0  99942 65298  97.9641 228.8053 0017021 152.7910 207.4197 14.78840816 40441

JSON: /api/v1/satellites/65298 · /tle

For live sub-satellite position, see the globe view (requires WebGL).

§ Visibility from observer

Set your observer location to see the next 7 days of passes ≥ 10°. The values pass through the URL so the page stays shareable.

No JS? Fill the form by hand. The geolocation button needs JavaScript.